Retour au catalogue

FENGYUN 1C DEB

LostPO
NORAD 31833·DEBRIS·🇨🇳 China

Lancé May 10, 1999 depuis Taiyuan Satellite Launch Center

Loading…

Prochains Passages (prochaines 24 heures)

TLE

PériméSource: Space-Track

Époque: Aug 25, 2024, 19:47 UTC

1 31833U 99025CHX 24238.82458326  .00002593  00000-0  29219-2 0  9994
2 31833  98.2036 250.5203 0323959  98.2182 265.5829 13.51045989847467

Suivez FENGYUN 1C DEB en temps réel avec AllMySat

Download on the App Store